Date,TemperatureHighF,TemperatureAvgF,TemperatureLowF,DewpointHighF,DewpointAvgF,DewpointLowF,HumidityHigh,HumidityAvg,HumidityLow,PressureMaxIn,PressureMinIn,WindSpeedMaxMPH,WindSpeedAvgMPH,GustSpeedMaxMPH,PrecipitationSumIn
2013-1-1,12.7,5.8,-3.9,7.8,0.1,-8.0,88,77,61,30.33,30.17,8,1,13,0.00
2013-1-2,21.3,16.3,11.4,14.0,11.7,7.8,89,82,72,30.17,30.08,3,0,6,0.00
2013-1-3,21.0,16.5,10.9,17.2,12.5,6.4,89,84,77,30.20,30.06,8,1,13,0.00
2013-1-4,30.5,17.6,8.8,21.6,12.9,5.7,88,82,68,30.24,30.03,9,1,17,0.00
2013-1-5,26.8,16.5,3.6,19.6,12.3,0.1,90,83,72,30.25,29.94,3,0,5,0.00
2013-1-6,27.8,21.7,10.1,23.0,17.8,7.0,91,85,73,30.27,29.96,6,0,12,0.00
2013-1-7,33.7,23.0,10.1,26.2,17.6,7.0,89,80,69,30.23,29.94,10,1,17,0.01
2013-1-8,37.5,25.6,10.9,29.0,21.3,7.8,92,84,64,30.14,29.85,8,0,14,0.01
2013-1-9,34.4,29.4,18.6,29.0,23.1,14.8,87,77,64,30.47,29.85,22,2,23,0.00
2013-1-10,39.0,27.8,16.6,31.5,20.5,13.6,93,76,48,30.51,29.93,4,0,7,0.15
2013-1-11,39.5,35.5,33.3,38.5,34.1,31.5,100,94,93,29.93,29.51,4,0,8,0.26
2013-1-12,41.4,27.3,13.6,40.3,23.2,7.7,96,84,77,30.03,29.46,15,2,18,0.04
2013-1-13,14.4,12.0,4.6,9.2,6.6,0.2,83,78,72,30.25,30.00,6,1,12,0.00
2013-1-14,14.3,6.6,-0.2,7.1,1.6,-4.4,84,80,71,30.48,30.25,7,1,14,0.00
2013-1-15,24.4,14.7,1.7,15.7,8.7,-2.3,87,77,59,30.48,29.97,8,1,13,0.00
2013-1-16,27.3,21.5,12.0,23.4,15.8,4.4,91,79,64,30.17,29.68,8,1,16,0.00
2013-1-17,12.1,5.0,-1.6,4.7,-1.8,-6.0,82,73,62,30.47,30.17,12,1,12,0.00
2013-1-18,27.7,15.3,-2.4,22.5,11.4,-6.8,91,84,79,30.47,29.85,3,0,9,0.00
2013-1-19,37.3,24.2,2.9,31.3,19.8,-4.1,92,83,69,29.97,29.59,20,2,28,0.07
2013-1-20,5.1,-0.7,-8.5,-2.8,-7.4,-13.2,80,73,60,30.33,29.97,12,1,19,0.00
2013-1-21,-5.7,-11.9,-17.2,-10.4,-18.5,-23.0,81,72,59,30.37,30.24,12,1,18,0.00
2013-1-22,-1.0,-11.3,-20.3,-11.7,-18.5,-25.7,77,70,59,30.50,30.36,8,0,9,0.00
2013-1-23,9.5,-3.3,-14.9,3.5,-8.7,-20.2,81,77,69,30.63,30.21,9,1,13,0.00
2013-1-24,8.7,-0.9,-16.0,2.2,-7.8,-21.1,92,73,55,30.80,30.45,3,0,6,0.00
2013-1-25,16.6,10.9,4.9,11.1,6.6,1.2,95,83,76,30.45,30.01,4,0,7,0.00
2013-1-26,21.0,11.7,-3.9,12.5,6.1,-8.1,88,78,67,30.48,30.28,4,0,8,0.00
2013-1-27,31.1,24.7,19.0,26.5,19.0,11.5,92,79,58,30.38,29.93,5,0,8,0.00
2013-1-28,35.5,29.5,26.9,29.8,26.8,24.4,93,89,78,29.97,29.82,2,0,5,0.03
2013-1-29,35.6,32.2,28.4,34.3,30.3,26.1,95,93,89,29.82,29.55,9,1,12,0.01
2013-1-30,29.4,19.9,10.5,26.8,16.7,6.6,91,87,83,29.66,29.47,9,2,16,0.00
2013-1-31,11.3,6.3,-0.9,6.7,1.4,-5.4,85,80,71,30.16,29.60,10,1,14,0.00
2013-2-1,1.4,-4.5,-13.7,-4.9,-10.9,-18.6,92,73,63,30.33,30.16,7,1,9,0.00
2013-2-2,10.0,1.6,-10.3,1.5,-4.5,-15.0,83,75,66,30.28,30.08,4,0,7,0.00
2013-2-3,9.5,3.2,-7.6,1.5,-2.7,-12.4,92,76,64,30.13,30.00,5,1,13,0.00
2013-2-4,13.0,-0.1,-15.3,0.0,-7.6,-20.1,86,71,50,30.17,29.98,4,0,8,0.00
2013-2-5,20.0,11.1,-2.6,14.6,6.4,-6.8,89,81,71,30.19,29.80,6,0,11,0.00
2013-2-6,23.1,10.2,-7.7,18.9,6.0,-12.2,98,83,68,30.31,30.18,7,0,7,0.00
2013-2-7,23.0,20.5,17.6,20.8,18.0,13.5,99,90,83,30.33,30.17,7,2,12,0.00
2013-2-8,22.6,12.7,3.5,13.8,7.4,0.0,95,80,63,30.48,30.33,6,1,11,0.00
2013-2-9,24.6,13.0,-1.8,19.2,8.6,-5.7,91,82,69,30.46,30.16,9,0,9,0.00
2013-2-10,32.6,27.2,21.5,31.3,25.3,19.3,100,93,91,30.16,29.35,8,1,11,0.00
2013-2-11,32.8,27.4,20.2,31.5,25.1,17.1,95,91,86,29.98,29.31,0,0,0,0.00
2013-2-12,22.9,18.9,14.5,19.4,15.4,11.6,90,86,80,30.04,29.86,4,0,8,0.00
2013-2-13,35.0,25.4,14.3,30.1,22.4,11.7,93,88,80,29.86,29.70,5,0,8,0.00
2013-2-14,28.9,23.9,13.1,27.1,20.1,8.8,93,85,74,30.10,29.68,10,1,15,0.00
2013-2-15,17.4,8.4,-2.0,8.9,3.1,-5.9,87,79,64,30.30,30.10,9,0,13,0.00
2013-2-16,12.9,0.7,-10.6,4.0,-5.0,-15.1,85,77,60,30.31,30.25,6,0,7,0.00
2013-2-17,22.6,4.0,-18.9,11.2,-4.3,-23.9,86,69,47,30.31,30.02,5,0,13,0.00
2013-2-18,36.2,26.4,18.0,28.3,21.3,11.2,91,81,69,30.02,29.55,6,0,9,0.01
2013-2-19,25.9,9.6,2.3,23.4,4.4,-3.2,90,79,67,30.26,29.55,10,2,22,0.00
2013-2-20,18.1,10.7,0.8,8.6,4.4,-3.4,92,76,64,30.55,30.26,11,2,15,0.00
2013-2-21,26.2,14.4,0.6,17.0,8.9,-3.5,89,79,64,30.59,30.26,7,2,13,0.00
2013-2-22,19.2,18.5,18.4,16.5,15.7,15.6,89,89,88,30.26,29.89,5,0,9,0.00
2013-2-23,18.4,18.4,18.4,15.7,15.7,15.7,89,89,89,29.89,29.71,0,0,0,0.00
2013-2-24,30.6,24.0,18.4,23.0,19.5,15.7,89,83,71,30.17,29.83,3,0,5,0.00
2013-2-25,32.6,28.7,23.1,27.1,24.4,19.8,89,84,75,30.21,30.13,2,0,4,0.00
2013-2-26,33.4,27.3,17.3,26.2,23.0,14.9,92,84,72,30.16,29.93,11,2,15,0.00
2013-2-27,30.7,28.8,26.9,26.4,24.6,23.0,92,84,81,29.98,29.84,11,4,16,0.00
2013-2-28,28.7,24.4,19.4,24.5,19.0,13.8,89,80,69,30.29,29.98,12,4,16,0.00
2013-3-1,25.7,19.4,8.6,14.4,11.5,3.9,82,71,55,30.42,30.28,10,3,13,0.00
2013-3-2,26.4,14.5,0.4,11.9,6.1,-3.3,88,70,50,30.40,30.28,8,1,10,0.00
2013-3-3,29.0,11.2,-7.3,11.0,1.6,-11.8,92,67,39,30.29,30.19,5,0,7,0.00
2013-3-4,32.1,19.3,2.4,18.3,10.1,-1.5,85,68,49,30.26,30.17,5,0,7,0.00
2013-3-5,27.0,22.8,21.0,17.4,14.6,11.2,78,71,62,30.22,30.13,6,2,8,0.00
2013-3-8,38.9,31.8,25.2,26.1,23.1,20.7,85,71,55,30.44,30.32,4,0,8,0.05
2013-3-9,32.2,27.8,25.2,28.5,23.6,21.0,88,84,82,30.33,30.05,3,0,11,0.00
2013-3-10,33.9,31.6,26.9,32.2,29.1,25.1,95,91,87,29.98,29.83,10,3,15,0.08
2013-3-11,27.6,25.0,19.7,25.2,22.8,16.7,93,91,88,29.86,29.68,10,3,12,0.00
2013-3-12,25.0,20.5,16.9,20.8,17.1,13.6,90,86,78,30.11,29.78,8,1,12,0.00
2013-3-13,29.7,19.3,10.0,15.9,11.2,4.5,89,71,53,30.35,30.11,10,1,12,0.05
2013-3-14,35.1,16.2,0.1,26.1,10.9,-3.9,88,80,53,30.36,30.08,6,0,11,0.16
2013-3-15,31.5,27.1,16.4,27.5,21.1,13.2,92,79,59,30.08,29.96,8,2,11,0.03
2013-3-16,23.8,16.7,8.8,14.8,10.2,5.0,87,76,64,30.25,30.00,7,1,13,0.02
2013-3-17,25.8,12.2,-7.3,9.4,1.8,-12.0,84,65,39,30.39,30.15,5,0,11,0.01
2013-3-18,27.7,20.8,12.7,24.3,17.2,7.7,92,86,78,30.15,29.59,5,0,13,0.00
2013-3-19,27.6,17.9,11.2,15.6,9.5,3.6,88,71,49,30.03,29.61,16,3,25,0.01
2013-3-20,18.7,11.8,1.5,7.6,2.9,-4.0,78,67,55,30.15,30.03,9,1,17,0.00
2013-3-21,26.5,15.9,3.5,16.0,9.2,-0.1,87,75,60,30.14,30.09,6,1,10,0.01
2013-3-22,30.9,18.7,-0.5,22.0,12.7,-4.5,85,77,67,30.18,30.12,7,1,10,0.00
2013-3-23,32.7,26.6,21.5,23.9,20.2,17.1,92,77,67,30.25,30.17,6,1,8,0.01
2013-3-24,30.0,26.5,20.8,23.5,20.4,16.6,84,77,70,30.19,30.00,12,3,16,0.00
2013-3-25,35.1,26.1,18.9,23.8,20.1,15.7,89,78,61,30.24,30.03,10,3,16,0.00
2013-3-26,36.4,29.7,23.1,26.3,22.7,17.9,87,75,58,30.33,30.24,6,1,9,0.01
2013-3-27,40.4,32.8,24.5,23.5,20.9,16.0,81,63,46,30.36,30.32,7,1,12,0.00
2013-3-28,44.5,30.1,14.1,24.5,18.0,9.9,85,63,39,30.41,30.33,5,0,10,0.00
2013-3-29,48.7,33.5,16.0,26.7,20.6,12.3,86,62,34,30.39,30.23,9,0,11,0.00
2013-3-30,36.7,34.1,30.6,35.1,30.7,22.7,95,88,67,30.23,29.83,5,0,8,0.57
2013-3-31,36.0,30.9,21.7,32.6,25.5,11.4,95,81,52,29.98,29.70,20,2,20,0.15
2013-4-1,29.7,23.0,18.5,13.8,10.1,8.0,69,58,44,30.21,29.98,9,1,18,0.01
2013-4-2,33.8,23.9,13.9,15.6,10.9,7.7,79,59,40,30.40,30.21,8,1,12,0.00
2013-4-3,40.9,24.7,8.7,19.1,11.5,3.9,83,60,33,30.53,30.21,8,0,14,0.00
2013-4-4,47.7,37.7,29.2,32.1,24.4,18.6,72,59,41,30.21,30.00,8,1,17,0.00
2013-4-5,39.7,31.4,21.0,26.4,19.1,15.0,81,62,38,30.32,30.15,5,0,6,0.00
2013-4-6,44.5,34.7,29.1,35.1,30.5,26.4,94,85,65,30.18,29.58,7,0,10,0.47
2013-4-7,42.7,34.4,30.3,31.7,29.4,27.2,93,82,63,30.00,29.63,8,1,11,0.02
2013-4-8,37.8,35.5,32.9,35.6,33.7,31.2,94,93,91,30.10,29.84,3,0,5,0.34
2013-4-9,36.2,34.1,29.1,33.8,29.5,20.6,95,84,65,30.23,30.08,12,2,14,0.00
2013-4-10,40.2,33.8,28.3,24.7,21.3,14.9,78,61,45,30.26,30.10,14,4,16,0.00
2013-4-11,34.3,30.0,25.8,24.5,22.3,18.1,91,73,58,30.12,29.79,14,4,19,0.01
2013-4-12,32.8,28.0,25.1,27.7,24.6,22.7,91,87,78,29.81,29.72,8,2,13,0.16
2013-4-13,35.3,28.0,20.6,27.9,23.9,18.0,91,85,68,30.05,29.80,8,1,13,0.13
2013-4-14,37.5,26.5,12.2,30.8,22.1,9.1,93,84,61,30.11,29.78,7,1,14,0.12
2013-4-15,44.5,36.5,32.6,36.8,30.3,26.9,95,79,52,29.94,29.67,16,2,25,0.55
2013-4-16,42.8,36.7,31.0,30.0,28.1,25.0,85,72,55,30.43,29.94,7,1,13,0.00
2013-4-17,39.9,34.2,27.1,31.7,27.6,23.7,89,77,64,30.45,30.06,9,1,13,0.00
2013-4-18,35.0,33.7,32.5,33.2,32.0,31.0,94,93,89,30.06,29.31,8,3,13,0.46
2013-4-19,32.7,27.1,20.4,31.2,23.4,16.9,100,86,66,29.96,29.20,9,2,20,0.11
2013-4-20,34.1,24.3,11.3,18.8,15.0,8.2,94,70,46,30.48,29.96,6,1,12,0.02
2013-4-21,36.4,30.4,20.6,31.6,24.7,15.9,91,79,71,30.53,30.25,12,1,13,0.08
2013-4-22,38.8,36.6,32.6,37.5,35.1,31.1,100,94,91,30.26,30.10,7,1,10,0.51
2013-4-23,35.5,32.3,24.5,32.6,28.2,21.5,95,85,69,30.10,29.95,8,2,13,0.33
2013-4-24,44.9,34.2,19.8,31.1,24.0,17.5,92,69,43,30.07,29.96,12,1,23,0.00
2013-4-25,45.4,36.7,29.4,33.2,28.5,25.0,93,74,45,30.28,29.96,10,1,14,0.12
2013-4-26,59.9,43.8,28.9,41.0,34.5,25.2,92,72,48,30.27,30.11,11,1,16,0.07
2013-4-27,65.5,49.0,32.7,47.7,39.4,30.3,94,72,43,30.21,30.02,10,1,12,0.00
2013-4-28,68.4,53.8,41.0,45.9,42.2,38.3,91,67,41,30.02,29.77,9,1,14,0.02
2013-4-29,69.7,54.0,42.7,53.8,48.6,41.4,96,84,52,29.84,29.71,5,0,8,0.34
2013-4-30,81.7,62.3,44.0,60.7,51.0,38.2,96,71,38,29.92,29.56,10,1,21,0.26
2013-5-1,50.3,43.9,34.1,47.9,39.8,30.1,95,86,67,30.45,29.90,9,1,11,0.36
2013-5-2,34.2,31.2,28.8,31.1,28.9,26.5,93,91,86,30.53,30.43,9,3,13,0.10
2013-5-3,33.3,30.9,28.5,31.8,29.0,26.2,94,93,90,30.43,30.23,7,3,9,0.00
2013-5-4,63.7,45.3,33.2,50.7,40.0,31.7,96,83,60,30.24,30.14,8,2,10,0.43
2013-5-5,72.2,53.3,35.2,48.0,40.4,32.8,92,66,33,30.21,30.07,6,1,8,0.00
2013-5-6,75.7,58.5,36.6,45.8,40.1,34.5,93,57,25,30.14,30.02,5,1,11,0.00
2013-5-7,78.3,61.4,43.3,44.8,41.4,37.6,87,53,27,30.10,29.99,4,0,8,0.00
2013-5-8,77.9,63.0,45.0,47.1,42.8,37.6,85,51,28,30.04,29.97,5,0,7,0.00
2013-5-9,58.7,48.3,34.5,46.4,41.0,32.2,93,77,58,30.14,29.95,12,3,15,0.40
2013-5-10,59.6,44.9,31.5,34.7,30.6,27.3,91,62,30,30.14,29.94,9,2,11,0.00
2013-5-11,43.9,38.9,32.9,37.7,31.0,25.6,86,74,51,30.07,29.84,13,2,24,0.02
2013-5-12,45.6,36.6,29.2,28.8,23.2,19.0,89,60,36,30.19,30.07,13,2,15,0.01
2013-5-13,59.6,43.9,24.8,35.8,25.9,19.1,82,53,27,30.23,29.86,8,1,11,0.00
2013-5-14,80.0,60.0,39.2,51.3,43.5,33.3,84,57,33,29.86,29.49,8,1,10,0.00
2013-5-15,75.1,64.4,55.0,50.0,43.1,39.0,79,48,28,29.83,29.53,11,2,18,0.00
2013-5-16,72.3,65.7,53.8,45.5,38.5,32.8,71,38,27,30.06,29.89,9,2,13,0.00
2013-5-17,71.7,58.4,49.0,52.4,45.2,38.4,87,63,40,30.14,30.04,7,1,9,0.00
2013-5-18,73.8,59.9,49.8,60.8,53.6,47.1,92,81,62,30.12,29.94,5,0,11,0.07
2013-5-19,83.0,70.6,57.2,64.6,60.7,55.1,94,73,50,29.95,29.70,6,1,10,0.00
2013-5-20,78.8,68.2,58.3,61.9,58.9,54.9,94,74,48,29.72,29.55,11,1,13,0.06
2013-5-21,69.3,61.8,56.2,61.9,58.5,54.5,95,89,71,29.70,29.54,8,0,9,0.77
2013-5-22,56.2,50.2,46.0,54.8,48.5,43.5,99,94,90,29.99,29.69,8,2,11,0.19
2013-5-23,51.7,43.6,36.1,43.3,34.3,31.5,91,71,47,30.40,29.99,12,3,14,0.00
2013-5-24,63.0,48.1,31.5,40.1,34.2,29.3,94,63,32,30.51,30.33,4,0,7,0.00
2013-5-25,65.6,54.8,41.2,43.3,40.0,36.5,86,60,37,30.43,30.30,8,0,9,0.00
2013-5-26,66.3,54.3,39.8,40.7,37.5,34.4,90,56,33,30.37,30.21,5,1,11,0.00
2013-5-27,68.7,57.0,44.5,45.7,41.3,34.6,78,57,38,30.24,29.96,7,1,10,0.00
2013-5-28,55.8,53.6,51.4,52.8,48.8,43.1,95,84,64,29.96,29.76,3,0,4,0.18
2013-5-29,74.8,61.2,53.2,65.3,57.5,51.8,96,89,66,29.91,29.80,4,0,8,0.57
2013-5-30,79.7,66.9,59.9,69.1,63.7,58.5,96,90,65,29.83,29.66,7,0,10,0.42
2013-5-31,77.6,65.5,55.2,63.5,58.9,52.7,95,81,54,29.71,29.61,11,1,14,0.44
2013-6-1,67.0,54.8,41.6,60.0,52.4,39.5,96,92,75,29.84,29.60,9,0,10,0.29
2013-6-2,56.6,46.4,39.4,42.1,38.4,36.7,92,75,48,30.08,29.84,8,1,10,0.00
2013-6-3,65.4,52.3,37.7,42.8,38.8,35.4,93,64,39,30.17,30.06,6,0,11,0.00
2013-6-4,58.5,52.5,46.1,49.3,44.4,37.5,90,74,58,30.22,30.15,3,0,4,0.02
2013-6-5,52.1,49.2,45.1,50.4,47.5,43.5,98,94,91,30.21,30.05,3,0,8,0.72
2013-6-6,53.4,49.6,46.8,51.0,47.3,45.5,100,92,80,30.08,30.05,3,0,4,0.12
2013-6-7,63.3,52.7,44.2,54.5,47.8,42.2,94,84,62,30.09,29.98,1,0,4,0.00
2013-6-8,65.7,57.1,51.3,53.7,51.1,48.8,95,82,59,30.04,29.97,6,0,8,0.00
2013-6-9,65.9,57.3,48.9,57.7,52.5,47.2,94,85,71,30.07,29.92,8,1,9,0.02
2013-6-10,75.2,64.8,54.3,64.4,59.0,52.6,94,82,61,29.92,29.80,2,0,4,0.01
2013-6-11,77.4,66.2,55.4,63.6,58.2,50.8,95,77,57,29.90,29.81,6,0,9,0.00
2013-6-12,76.0,63.4,52.4,61.1,55.7,49.0,92,77,49,29.94,29.77,4,0,6,0.00
2013-6-13,69.4,61.3,54.0,54.4,52.3,49.3,88,73,55,30.14,29.85,7,1,11,0.00
2013-6-14,73.2,61.5,47.4,56.7,50.6,45.3,94,70,45,30.18,30.00,3,0,7,0.00
2013-6-15,64.6,61.7,58.7,63.4,58.8,53.6,96,90,78,30.00,29.82,5,0,7,0.68
2013-6-16,74.6,63.4,55.7,61.9,56.4,51.7,97,80,46,29.95,29.83,11,1,12,0.19
2013-6-17,68.2,62.3,51.8,59.7,55.6,42.7,93,79,70,30.08,29.94,4,1,6,0.22
2013-6-18,67.5,56.3,40.5,51.3,44.7,37.9,92,67,43,30.17,30.08,5,0,6,0.00
2013-6-19,72.0,59.9,46.0,58.9,50.3,41.3,86,72,53,30.17,30.05,7,0,8,0.00
2013-6-20,77.3,64.8,56.8,67.2,60.4,53.0,96,86,64,30.14,30.04,2,0,10,0.82
2013-6-21,71.1,64.6,61.3,67.3,62.2,59.5,96,92,79,30.08,29.74,5,0,8,0.36
2013-6-22,71.8,64.7,60.6,66.8,62.0,58.9,95,91,81,30.09,29.90,4,0,10,0.01
2013-6-23,79.1,70.5,62.9,71.3,65.6,61.5,96,85,70,29.93,29.78,7,0,12,0.00
2013-6-24,79.9,71.1,63.1,71.1,65.7,61.5,96,84,66,29.93,29.81,6,0,10,0.00
2013-6-25,80.5,72.0,63.6,70.7,66.3,61.6,94,83,63,29.85,29.76,2,0,8,0.00
2013-6-26,80.7,69.7,63.8,72.6,66.5,61.1,96,90,69,29.79,29.68,4,0,14,0.77
2013-6-27,77.1,66.0,57.1,70.9,63.6,54.8,97,93,69,29.80,29.67,7,0,13,1.44
2013-6-28,66.7,61.7,55.8,63.6,59.5,54.7,97,93,83,29.74,29.66,3,0,7,0.10
2013-6-29,67.7,61.0,54.6,59.7,55.8,49.0,95,84,62,29.97,29.73,7,0,7,0.12
2013-6-30,75.3,63.5,51.0,55.1,50.1,46.0,88,65,39,30.13,29.97,5,0,7,0.04
2013-7-1,77.3,66.0,53.9,58.2,53.4,50.7,92,66,44,30.19,30.13,4,0,7,0.00
2013-7-2,74.0,63.4,51.8,56.3,50.6,44.1,88,65,43,30.19,30.08,4,0,5,0.00
2013-7-4,78.8,70.4,58.7,64.3,60.7,56.4,93,72,53,30.03,29.95,8,0,9,0.00
2013-7-5,81.1,71.4,60.3,64.4,60.4,56.9,89,70,50,30.00,29.90,6,1,13,0.00
2013-7-6,84.3,73.9,66.2,68.4,64.1,61.0,84,72,54,29.95,29.88,8,0,12,0.00
2013-7-7,80.3,72.6,66.8,72.1,68.0,63.8,95,86,72,29.93,29.86,5,0,11,0.28
2013-7-8,80.9,70.9,66.1,71.4,67.5,64.9,96,90,66,29.97,29.86,3,0,6,0.20
2013-7-9,75.3,70.1,66.2,72.3,68.0,64.7,96,93,83,29.99,29.72,5,0,11,0.36
2013-7-10,69.8,64.0,57.1,66.1,56.7,52.9,96,78,57,30.04,29.78,7,1,14,0.00
2013-7-11,76.9,65.7,54.6,60.4,56.4,52.5,94,74,50,30.15,30.03,3,0,6,0.00
2013-7-12,78.7,68.9,57.3,63.3,59.5,54.5,92,73,52,30.13,30.02,6,0,10,0.00
2013-7-13,80.4,71.0,64.4,66.0,61.3,57.2,82,72,56,30.14,30.03,6,0,10,0.00
2013-7-14,81.3,71.8,61.1,67.4,63.2,57.5,90,75,58,30.22,30.14,8,0,10,0.00
2013-7-15,83.1,73.0,64.6,72.5,67.0,62.3,93,82,62,30.28,30.21,5,0,7,0.00
2013-7-16,87.1,77.9,70.5,74.1,71.4,68.3,95,81,62,30.23,30.15,4,0,15,0.00
2013-7-17,85.4,77.2,69.3,72.1,70.0,67.5,95,79,60,30.23,30.11,6,0,12,0.00
2013-7-18,87.0,78.6,69.4,73.1,70.3,66.7,92,77,60,30.11,29.73,8,1,13,0.00
2013-7-19,82.3,75.5,62.4,71.4,65.3,57.0,87,71,53,29.80,29.62,8,1,20,0.00
2013-7-20,70.1,64.1,57.9,57.9,53.4,48.2,88,69,48,30.02,29.80,3,0,8,0.00
2013-7-21,67.0,60.7,55.5,59.1,53.4,45.7,91,77,67,30.04,29.92,2,0,7,0.00
2013-7-22,78.9,65.8,57.0,71.0,61.6,54.8,94,87,70,29.92,29.61,9,0,13,0.54
2013-7-23,59.9,56.0,53.0,56.5,51.5,48.4,94,85,70,29.96,29.76,4,1,9,0.00
2013-8-7,67.3,61.8,52.2,59.8,54.1,47.2,96,77,51,30.04,29.78,5,0,10,0.03
2013-8-8,71.4,59.1,48.2,58.1,52.8,46.3,98,81,54,30.08,30.00,5,0,9,0.00
2013-8-9,67.9,60.8,55.5,56.3,53.0,48.3,95,77,54,30.10,29.97,6,0,16,0.02
2013-8-10,67.8,60.5,53.6,58.2,54.4,51.0,93,81,64,30.18,30.10,3,0,6,0.00
2013-8-11,70.7,60.8,50.7,59.5,54.7,48.7,94,82,59,30.14,30.02,3,0,5,0.00
2013-8-12,71.2,60.9,49.4,59.8,54.4,45.4,95,80,56,30.09,29.96,7,0,10,0.02
2013-8-13,61.7,53.7,46.2,51.1,46.8,43.9,93,78,57,30.23,30.08,6,0,7,0.00
2013-8-14,65.9,53.6,42.3,52.3,46.3,39.9,93,78,55,30.27,30.15,4,0,7,0.00
2013-8-15,71.9,59.3,48.3,56.8,51.2,45.2,92,76,51,30.16,30.09,3,0,7,0.00
2013-8-16,74.5,62.6,50.9,60.5,55.3,48.7,94,79,51,30.20,30.15,3,0,5,0.00
2013-8-17,75.6,65.1,54.6,60.5,56.9,52.6,94,77,53,30.25,30.14,4,0,8,0.00
2013-8-18,76.2,64.8,53.7,61.5,57.0,51.7,94,77,53,30.20,30.05,4,0,11,0.00
2013-8-19,76.7,66.2,56.5,67.0,61.0,54.2,93,84,70,30.07,29.95,9,0,13,0.00
2013-8-20,81.6,71.8,61.8,71.1,66.0,60.1,95,83,68,30.00,29.90,6,0,10,0.00
2013-8-21,83.5,72.4,64.8,73.9,67.7,63.0,94,86,71,30.00,29.82,7,0,10,0.01
2013-8-22,75.6,67.0,57.0,63.4,56.4,50.9,95,71,42,30.17,29.99,4,0,5,0.00
2013-8-23,75.6,64.7,53.1,62.7,56.3,50.3,91,75,59,30.22,30.12,5,0,8,0.00
2013-8-24,76.8,68.7,59.0,66.7,60.8,55.5,95,77,62,30.23,30.04,7,0,9,0.00
2013-8-25,87.9,78.1,70.1,74.8,70.7,66.1,90,79,63,30.06,29.94,8,1,13,0.00
2013-8-26,80.3,73.3,66.5,75.7,70.6,64.8,96,91,79,30.05,29.91,7,0,13,1.21
2013-8-27,78.9,73.0,68.2,75.8,71.3,67.0,97,94,88,29.94,29.81,2,0,3,1.09
2013-8-28,78.7,71.4,65.2,69.4,66.8,64.0,97,86,66,30.05,29.90,1,0,3,0.00
2013-8-29,78.6,70.1,65.0,71.2,67.0,63.5,96,90,73,30.08,29.87,5,0,8,2.29
2013-8-30,73.9,68.8,59.8,69.7,65.0,57.5,97,88,72,29.94,29.80,4,0,9,0.00
2013-8-31,76.4,65.8,57.3,67.8,61.5,55.7,96,87,65,29.93,29.78,5,0,7,0.00
2013-9-1,70.3,65.8,58.9,64.5,61.4,56.6,96,86,70,29.89,29.71,5,0,12,0.16
2013-9-2,58.9,54.0,47.9,56.4,50.3,45.7,93,87,78,30.07,29.88,9,0,10,0.00
2013-9-3,68.5,56.0,42.6,58.0,50.4,40.7,96,83,60,30.12,30.00,7,0,11,0.00
2013-9-4,68.0,60.1,51.5,59.5,54.7,48.7,94,83,59,30.22,30.01,5,0,6,0.00
2013-9-5,67.8,56.5,46.0,55.9,50.1,43.9,94,80,56,30.33,30.21,3,0,5,0.00
2013-9-6,78.1,64.5,52.8,70.0,60.6,50.0,95,87,72,30.23,29.93,5,0,7,0.04
2013-9-7,80.0,69.0,57.4,71.3,64.5,52.9,96,86,66,30.10,29.89,5,0,10,0.00
2013-9-8,68.1,59.3,49.2,56.9,52.5,47.0,93,79,60,30.16,30.00,6,0,6,0.00
2013-9-9,75.3,65.2,57.5,72.0,63.4,54.2,96,94,88,30.00,29.69,3,0,8,0.11
2013-9-10,77.1,68.2,60.1,69.5,65.6,58.7,97,92,67,29.93,29.72,4,0,11,0.07
2013-9-11,75.0,64.5,57.1,66.3,59.6,53.4,96,85,64,30.02,29.93,14,0,14,0.00
2013-9-12,60.9,56.0,47.7,55.9,50.0,44.2,93,81,65,30.22,29.99,6,0,13,0.00
2013-9-13,59.0,50.0,42.5,47.7,43.7,40.3,93,80,59,30.30,30.15,4,0,6,0.00
2013-9-14,65.2,53.1,41.7,54.2,47.5,39.5,93,82,61,30.17,30.00,8,0,10,0.09
2013-9-15,56.2,51.5,41.0,54.7,49.0,38.1,96,91,82,30.34,29.99,4,0,8,0.15
2013-9-16,57.3,46.0,35.6,47.8,40.5,33.8,95,82,57,30.50,30.34,1,0,3,0.00
2013-9-17,62.1,50.7,38.3,53.0,45.8,36.5,95,84,64,30.40,30.10,4,0,8,0.00
2013-9-18,63.0,58.9,55.5,61.8,57.5,52.6,96,95,89,30.10,29.85,4,0,6,0.19
2013-9-19,71.9,65.8,61.3,69.8,64.6,60.2,97,96,88,29.86,29.68,8,0,12,0.47
2013-9-20,65.7,59.6,49.0,62.9,56.8,46.4,97,91,72,29.83,29.66,7,0,12,0.06
2013-9-21,51.4,46.6,39.1,46.3,42.6,37.0,95,86,71,30.04,29.82,4,0,9,0.00
2013-9-22,55.9,44.6,34.6,48.0,40.5,32.8,95,86,68,30.16,30.04,3,0,5,0.00
2013-9-23,61.4,50.0,40.3,53.6,45.8,38.2,98,86,71,30.17,30.07,4,0,7,0.00
2013-9-24,64.6,52.6,43.1,56.0,48.9,41.2,96,88,66,30.13,30.01,1,0,4,0.00
2013-9-25,63.6,52.9,43.2,55.0,49.1,41.6,98,87,68,30.07,30.00,2,0,3,0.00
2013-9-26,66.1,53.8,45.6,56.6,49.8,44.0,98,87,65,30.11,30.05,3,0,7,0.00
2013-9-27,72.5,60.5,49.0,59.7,53.6,47.0,94,79,59,30.13,30.00,5,0,12,0.00
2013-9-28,71.9,60.0,51.0,61.4,54.2,48.9,94,82,66,30.03,29.71,12,1,15,0.33
2013-9-29,63.5,52.4,43.1,52.1,47.1,41.5,96,83,55,30.02,29.90,7,0,8,0.00
2013-9-30,66.5,57.9,50.8,51.3,48.6,45.9,89,72,55,29.96,29.74,9,1,15,0.00
2013-10-1,72.2,61.6,51.7,57.2,48.8,39.3,87,65,34,29.94,29.68,8,1,16,0.00
2013-10-2,67.8,54.6,41.8,48.7,42.1,37.6,86,65,35,30.10,29.95,3,0,7,0.00
2013-10-3,60.2,53.9,47.5,54.3,50.4,45.7,94,88,66,30.06,29.92,2,0,4,0.96
2013-10-4,55.1,52.8,51.3,52.4,51.0,49.9,95,94,89,30.11,29.98,4,0,6,0.05
2013-10-5,56.3,53.6,51.9,55.2,52.4,50.5,99,96,95,30.07,29.71,6,1,8,0.59
2013-10-6,56.6,52.1,46.7,53.2,48.5,44.2,98,88,67,29.75,29.66,5,0,9,0.07
2013-10-7,55.4,47.6,41.3,45.0,41.8,39.6,94,82,57,30.08,29.71,8,0,12,0.00
2013-10-8,68.1,53.7,39.5,51.1,44.8,37.1,93,74,50,30.13,30.01,7,0,14,0.00
2013-10-9,68.7,59.1,52.2,53.2,49.6,46.8,83,71,56,30.15,30.05,6,0,14,0.00
2013-10-10,68.3,55.3,44.5,50.4,46.3,42.1,92,74,46,30.16,30.06,3,0,7,0.00
2013-10-11,69.1,57.4,47.1,56.2,51.0,45.2,94,80,62,30.08,29.88,7,1,10,0.00
2013-10-12,64.6,58.5,53.1,56.5,48.5,40.4,86,70,53,30.07,29.81,8,2,19,0.00
2013-10-13,54.0,53.2,50.0,41.3,39.0,35.5,65,59,50,30.44,30.07,5,3,10,0.00
2013-10-14,55.7,52.6,47.2,43.1,38.0,36.5,82,58,51,30.47,30.19,4,0,6,0.00
2013-10-15,52.5,49.2,46.1,51.1,47.1,41.4,95,93,82,30.19,29.72,5,0,7,0.88
2013-10-16,47.4,42.4,33.5,46.0,39.9,31.7,95,91,81,29.94,29.73,8,0,9,0.09
2013-10-17,52.6,40.4,31.3,41.4,35.9,29.8,95,85,61,29.94,29.80,8,0,10,0.00
2013-10-18,42.6,39.6,32.1,40.9,37.5,30.6,98,92,87,29.93,29.79,6,0,11,0.25
2013-10-19,45.8,36.5,31.4,36.8,33.5,29.9,95,89,65,29.90,29.70,6,0,13,0.09
2013-10-20,42.7,35.3,32.5,36.3,32.8,31.0,95,91,69,29.85,29.72,3,0,6,0.13
2013-10-21,34.2,32.1,29.0,32.9,28.2,23.6,95,86,71,29.88,29.73,14,2,21,0.08
2013-10-22,38.1,33.4,31.3,31.9,29.5,26.0,94,86,68,30.03,29.84,11,1,17,0.05
2013-10-23,36.7,32.1,28.2,29.5,26.0,22.3,87,78,59,30.05,29.98,8,1,13,0.01
2013-10-24,38.3,32.5,28.6,30.2,27.3,24.4,92,81,66,30.31,30.05,10,1,15,0.01
2013-10-25,47.3,35.6,25.3,39.2,28.3,23.0,92,76,56,30.33,29.72,8,1,15,0.00
2013-10-26,47.7,39.4,34.4,39.3,32.5,28.1,88,76,61,30.07,29.71,14,1,18,0.02
2013-10-27,49.9,38.8,31.5,33.7,31.0,28.3,89,74,52,30.20,29.85,9,1,14,0.00
2013-10-28,37.1,30.8,25.0,30.2,22.7,20.5,89,73,52,30.55,30.20,10,2,13,0.00
2013-10-29,35.7,30.4,23.2,33.2,26.4,19.5,93,85,65,30.55,30.24,2,0,5,0.00
2013-10-30,48.2,41.4,35.1,47.1,40.0,33.2,96,95,93,30.24,29.78,1,0,4,0.01
2013-10-31,52.2,49.1,44.6,51.1,48.0,43.3,96,96,95,29.78,29.24,4,0,7,0.03
2013-11-1,44.6,40.6,37.5,43.3,38.9,35.8,100,93,89,29.79,29.24,6,0,9,0.00
2013-11-2,38.1,35.5,30.9,36.0,33.7,29.4,100,93,89,30.20,29.79,5,0,5,0.01
2013-11-3,42.1,35.7,29.0,36.6,32.6,27.5,95,89,75,30.32,30.20,5,0,11,0.00
2013-11-4,46.3,41.9,38.5,42.0,38.4,35.3,95,87,75,30.21,29.99,7,1,14,0.06
2013-11-5,44.9,37.5,30.4,38.2,34.2,28.9,95,88,70,30.31,30.00,6,0,8,0.17
2013-11-6,33.9,31.6,26.9,32.1,28.8,21.3,94,89,79,30.16,29.90,5,0,12,0.12
2013-11-7,34.6,27.1,19.7,26.4,22.5,17.2,91,83,66,30.26,30.16,12,0,14,0.03
2013-11-8,36.4,30.0,22.0,31.7,26.1,19.5,94,86,71,30.29,29.80,9,0,14,0.01
2013-11-9,36.7,34.9,33.0,35.4,32.4,29.9,95,91,84,30.04,29.67,13,2,21,0.26
2013-11-10,37.4,34.8,32.9,31.3,29.2,27.4,91,80,68,30.31,30.04,10,1,17,0.04
2013-11-11,32.9,24.4,20.6,30.6,17.7,12.3,91,76,62,30.64,30.08,11,2,15,0.00
2013-11-12,24.9,18.8,12.1,15.8,10.9,8.7,87,72,50,30.75,30.53,12,1,12,0.00
2013-11-13,42.7,28.9,15.7,30.5,21.6,10.2,83,74,60,30.53,29.95,11,1,23,0.02
2013-11-14,37.4,32.3,28.7,30.6,27.7,25.3,93,83,73,29.95,29.84,4,0,6,0.00
2013-11-15,46.5,34.9,26.7,39.0,31.6,25.0,94,88,73,29.94,29.85,11,0,11,0.00
2013-11-16,50.6,41.4,35.7,49.5,38.8,31.7,96,91,83,29.85,29.37,6,0,7,0.38
2013-11-17,48.5,40.5,33.1,47.1,38.4,30.2,100,92,84,29.55,29.24,14,1,23,0.00
2013-11-18,33.1,27.6,23.8,30.1,21.5,17.5,90,78,71,30.30,29.55,15,3,29,0.00
2013-11-19,33.8,26.3,16.4,25.5,20.0,13.5,94,77,62,30.40,30.21,3,0,11,0.00
2013-11-20,36.4,32.9,31.2,29.9,27.7,24.7,94,81,67,30.22,30.13,8,0,10,0.00
2013-11-21,33.9,31.7,25.9,32.4,29.8,22.8,100,93,88,30.42,30.14,8,1,11,0.00
2013-11-22,27.7,23.3,15.1,23.0,16.8,6.5,90,76,58,30.54,30.42,10,1,17,0.00
2013-11-23,15.1,9.0,1.7,7.9,2.2,-3.3,86,73,60,30.78,30.51,11,1,17,0.00
2013-11-24,21.3,9.5,-4.3,12.5,2.0,-8.6,85,72,59,30.76,30.11,7,1,14,0.00
2013-11-25,32.3,28.0,21.5,26.7,22.0,12.4,84,78,69,30.11,29.93,11,2,20,0.00
2013-11-26,29.1,16.3,4.5,23.7,9.5,0.7,85,74,62,30.32,29.99,10,1,19,0.00
2013-11-27,22.0,14.1,4.6,14.5,8.5,0.7,89,79,62,30.39,30.26,5,0,9,0.00
2013-11-28,22.4,16.4,7.6,15.9,12.2,4.3,89,83,71,30.57,30.22,4,0,6,0.00
2013-11-29,23.6,18.9,8.1,18.4,14.8,4.8,90,84,73,30.67,30.36,4,0,9,0.00
2013-11-30,34.4,28.4,23.6,26.8,23.1,18.1,87,80,72,30.36,30.09,5,0,7,0.00
2013-12-1,32.7,29.6,27.1,27.0,25.4,23.0,91,84,73,30.23,30.04,3,0,4,0.00
2013-12-2,32.4,28.0,19.0,29.1,24.3,16.4,92,86,80,30.04,29.85,3,0,11,0.00
2013-12-3,30.3,27.7,23.3,28.5,25.5,20.8,93,91,89,29.95,29.83,2,0,4,0.00
2013-12-4,33.0,29.0,23.5,32.0,27.2,21.3,100,93,91,29.94,29.42,0,0,0,0.00
2013-12-5,30.6,11.8,1.2,28.7,8.0,-3.3,93,84,79,30.27,29.49,0,0,0,0.00
2013-12-6,5.1,-1.9,-8.8,0.2,-6.1,-13.0,84,82,79,30.65,30.27,0,0,0,0.00
2013-12-7,1.5,-7.5,-15.3,-3.6,-12.1,-20.1,92,80,76,30.77,30.64,0,0,0,0.00
2013-12-8,9.9,1.0,-12.3,6.0,-3.0,-17.0,92,83,79,30.71,30.14,0,0,0,0.00
2013-12-9,9.5,2.1,-13.0,6.4,-2.3,-17.6,87,81,73,30.14,29.94,6,0,12,0.00
2013-12-10,6.1,-2.4,-13.3,2.5,-6.8,-17.9,89,81,78,30.30,29.94,8,0,10,0.00
2013-12-11,-2.3,-8.7,-13.3,-8.3,-13.4,-17.9,82,79,74,30.57,30.29,7,0,9,0.00
2013-12-12,11.0,1.5,-12.7,5.7,-2.9,-17.4,95,81,77,30.50,30.27,6,0,9,0.00
2013-12-13,9.4,6.2,1.8,5.4,1.3,-2.9,85,80,73,30.47,30.29,4,0,6,0.00
2013-12-14,15.8,10.2,2.0,11.0,6.2,-2.6,88,83,80,30.46,30.00,4,0,9,0.00
2013-12-15,11.5,-0.9,-14.8,7.8,-5.8,-19.6,85,79,73,30.25,29.99,9,1,13,0.00
2013-12-16,10.9,-1.1,-18.4,6.2,-5.5,-23.4,88,81,70,30.27,30.03,7,0,8,0.00
2013-12-17,24.7,16.7,9.1,21.5,13.4,5.3,91,86,77,30.09,29.91,6,1,11,0.00
2013-12-18,22.6,9.7,-3.7,14.4,4.9,-7.9,87,80,69,30.11,29.79,3,0,9,0.00
2013-12-19,20.4,15.7,7.7,17.0,11.7,4.7,91,84,77,30.18,29.86,6,2,13,0.00
2013-12-20,19.2,14.4,5.9,15.4,11.2,2.4,89,87,84,30.15,29.95,5,1,6,0.00
2013-12-21,23.1,19.8,17.3,19.5,16.7,14.6,92,87,83,30.08,29.94,4,0,5,0.00
2013-12-22,23.4,20.2,16.8,19.5,16.7,13.6,92,86,80,30.20,29.95,8,1,11,0.00
2013-12-23,16.8,9.9,-5.8,13.7,6.1,-9.9,88,84,78,30.51,30.20,6,0,8,0.00
2013-12-24,13.4,1.6,-14.0,7.2,-3.2,-18.6,92,80,70,30.59,30.30,3,0,9,0.00
2013-12-25,16.2,11.0,7.2,11.2,7.2,3.7,87,84,79,30.30,30.12,4,0,7,0.00
2013-12-26,14.7,9.8,1.9,11.8,5.7,-1.7,95,83,75,30.31,30.13,2,0,5,0.00
2013-12-27,27.4,21.2,14.7,25.3,18.9,11.8,93,90,87,30.30,29.96,7,0,7,0.00
2013-12-28,33.6,28.2,23.1,30.8,26.2,20.6,94,92,89,30.05,29.80,9,0,12,0.00
2013-12-29,22.9,4.3,-14.8,20.1,-0.9,-19.6,90,78,68,30.31,29.88,10,2,14,0.00
2013-12-30,-1.5,-11.5,-23.9,-10.1,-17.7,-29.2,92,74,60,30.42,30.31,5,0,8,0.00
2013-12-31,-2.7,-12.0,-20.6,-10.4,-17.5,-25.8,81,76,67,30.57,30.30,7,0,13,0.00
2014-1-1,2.4,-4.7,-20.5,-4.4,-10.0,-25.7,82,77,71,30.66,30.55,3,0,7,0.00
2014-1-2,5.8,-4.2,-15.1,-2.2,-9.8,-19.9,92,77,67,30.57,30.50,6,0,10,0.00